Stornoway, United Kingdom

9:33 PM GMT on November 17, 2018 (GMT +0000)
Stornoway

Weather History for EGPO - November, 2018

Change the Weather History Date:

Friday, November 9, 2018

  Actual Average Record
Temperature  
Mean Temperature 50 °F -  
Max Temperature 53 °F 46 °F 55 °F (2011)
Min Temperature 48 °F 37 °F 32 °F (1996)
Degree Days  
Heating Degree Days 14    
Moisture  
Dew Point 44 °F    
Average Humidity 73    
Maximum Humidity 82    
Minimum Humidity 58    
Precipitation  
Precipitation 0.03 in 0.17 in - ()
Sea Level Pressure  
Sea Level Pressure 29.24 in    
Wind  
Wind Speed 21 mph ()    
Max Wind Speed 38 mph    
Max Gust Speed 43 mph    
Visibility 7.3 miles    
Events Rain    
Averages and records for this station are not official NWS values.
T = Trace of Precipitation, MM = Missing Value Source: Averaged Metar Reports

Daily Weather History Graph

Daily Weather History Graph

Search for Another Location

Airport or City:

Astronomy

Nov. 09, 2018 Rise Set
Actual Time 7:58 AM GMT 4:18 PM GMT
Civil Twilight 7:14 AM GMT 5:02 PM GMT
Nautical Twilight 6:26 AM GMT 5:50 PM GMT
Astronomical Twilight 5:40 AM GMT 6:36 PM GMT
Moon 9:44 AM GMT (11/9) 5:42 PM GMT (11/9)
Length of Visible Light 9h 48m
Length of Day
8h 19m
Waxing Crescent, 4% of the Moon is Illuminated
Nov 9
Waxing Crescent
Nov 15
First Quarter
Nov 23
Full
Nov 30
Last Quarter
Dec 7
New

Hourly Weather History & Observations

Time (GMT) Temp. Dew Point Humidity Pressure Visibility Wind Dir Wind Speed Gust Speed Precip Events Conditions
12:00 AM 50 °F 42 °F 65% 29.52 in 31 mi SSE 18.4 mph - -   Scattered Clouds
12:20 AM 50.0 °F 42.8 °F 76% 29.50 in 6.2 mi SSE 19.6 mph - N/A   Partly Cloudy
12:50 AM 50.0 °F 42.8 °F 76% 29.50 in 6.2 mi SSE 21.9 mph - N/A   Unknown
1:00 AM 50 °F 42 °F 65% 29.51 in 31 mi SSE 18.4 mph - -   Mostly Cloudy
1:20 AM 50.0 °F 42.8 °F 76% 29.47 in 6.2 mi SSE 21.9 mph - N/A   Partly Cloudy
1:50 AM 50.0 °F 41.0 °F 71% 29.47 in 6.2 mi SSE 18.4 mph - N/A   Scattered Clouds
2:00 AM 50 °F 42 °F 67% 29.49 in 31 mi SSE 17.3 mph - -   Scattered Clouds
2:20 AM 50.0 °F 42.8 °F 76% 29.47 in 6.2 mi SSE 18.4 mph - N/A   Scattered Clouds
2:50 AM 50.0 °F 42.8 °F 76% 29.47 in 6.2 mi SSE 20.7 mph - N/A   Unknown
3:00 AM 51 °F 42 °F 63% 29.49 in 31 mi SSE 19.6 mph - -   Mostly Cloudy
3:20 AM 51.8 °F 42.8 °F 71% 29.47 in 6.2 mi South 19.6 mph - N/A   Partly Cloudy
3:50 AM 51.8 °F 42.8 °F 71% 29.44 in 6.2 mi South 21.9 mph - N/A   Mostly Cloudy
4:00 AM 51 °F 42 °F 63% 29.47 in 31 mi South 20.7 mph - -   Partly Cloudy
4:20 AM 51.8 °F 42.8 °F 71% 29.44 in 6.2 mi SSE 21.9 mph - N/A   Scattered Clouds
4:50 AM 50.0 °F 42.8 °F 76% 29.44 in 6.2 mi SSE 23.0 mph - N/A   Scattered Clouds
5:00 AM 51 °F 43 °F 65% 29.46 in 25 mi South 21.9 mph - -   Scattered Clouds
5:20 AM 50.0 °F 42.8 °F 76% 29.44 in 6.2 mi South 23.0 mph - N/A   Scattered Clouds
5:50 AM 50.0 °F 42.8 °F 76% 29.44 in 6.2 mi SSE 23.0 mph - N/A   Partly Cloudy
6:00 AM 51 °F 43 °F 66% 29.45 in 28 mi South 21.9 mph - -  
6:20 AM 50.0 °F 42.8 °F 76% 29.44 in 6.2 mi SSE 24.2 mph - N/A   Mostly Cloudy
6:50 AM 50.0 °F 42.8 °F 76% 29.44 in 6.2 mi South 24.2 mph - N/A   Scattered Clouds
7:00 AM 51 °F 44 °F 68% 29.44 in 18 mi South 21.9 mph - -   Scattered Clouds
7:20 AM 50.0 °F 42.8 °F 76% 29.42 in 6.2 mi SSE 21.9 mph - N/A   Partly Cloudy
7:50 AM 50.0 °F 42.8 °F 76% 29.42 in 6.2 mi SSE 21.9 mph - N/A   Partly Cloudy
8:00 AM 50 °F 43 °F 68% 29.43 in 25 mi SSE 23.0 mph - -   Scattered Clouds
8:20 AM 50.0 °F 42.8 °F 76% 29.42 in 6.2 mi SE 19.6 mph - N/A   Partly Cloudy
8:50 AM 50.0 °F 44.6 °F 82% 29.39 in 6.2 mi SE 24.2 mph - N/A   Partly Cloudy
9:00 AM 50 °F 44 °F 72% 29.41 in 22 mi SE 19.6 mph - -  
9:20 AM 50.0 °F 44.6 °F 82% 29.39 in 6.2 mi SE 19.6 mph - N/A   Partly Cloudy
9:50 AM 51.8 °F 42.8 °F 71% 29.39 in 6.2 mi SE 19.6 mph - N/A   Partly Cloudy
10:00 AM 51 °F 43 °F 65% 29.39 in 28 mi SE 17.3 mph - -  
10:20 AM 51.8 °F 42.8 °F 71% 29.36 in 6.2 mi SE 19.6 mph - N/A   Mostly Cloudy
10:50 AM 51.8 °F 42.8 °F 71% 29.36 in 6.2 mi SE 18.4 mph - N/A   Mostly Cloudy
11:00 AM 51 °F 43 °F 65% 29.36 in 28 mi SE 17.3 mph - -   Scattered Clouds
11:20 AM 51.8 °F 44.6 °F 76% 29.33 in 6.2 mi ESE 18.4 mph - N/A   Mostly Cloudy
11:50 AM 51.8 °F 44.6 °F 76% 29.30 in 6.2 mi ESE 18.4 mph - N/A   Scattered Clouds
12:00 PM 52 °F 45 °F 71% 29.31 in 19 mi ESE 19.6 mph - -   Partly Cloudy
12:20 PM 51.8 °F 44.6 °F 76% 29.27 in 6.2 mi SE 24.2 mph - N/A Rain Light Rain
12:50 PM 51.8 °F 44.6 °F 76% 29.27 in 6.2 mi SE 25.3 mph - N/A Rain Light Rain
1:00 PM 52 °F 45 °F 69% 29.27 in 6 mi SE 24.2 mph - - Rain Rain
1:20 PM 51.8 °F 44.6 °F 76% 29.24 in 6.2 mi SE 24.2 mph - N/A   Mostly Cloudy
1:50 PM 51.8 °F 44.6 °F 76% 29.24 in 6.2 mi SE 28.8 mph - N/A Rain Light Rain Showers
2:00 PM 51 °F 44 °F 71% 29.24 in 3 mi SE 26.5 mph - - Rain Light Rain Showers
2:20 PM 51.8 °F 44.6 °F 76% 29.21 in 6.2 mi SE 26.5 mph 38.0 mph N/A   Scattered Clouds
2:50 PM 51.8 °F 44.6 °F 76% 29.18 in 6.2 mi ESE 24.2 mph - N/A   Mostly Cloudy
3:00 PM 51 °F 45 °F 72% 29.18 in 14 mi ESE 31.1 mph - - Rain Rain
3:20 PM 51.8 °F 44.6 °F 76% 29.15 in 6.2 mi ESE 28.8 mph - N/A   Mostly Cloudy
3:50 PM 51.8 °F 44.6 °F 76% 29.15 in 6.2 mi ESE 28.8 mph 40.3 mph N/A Rain Light Rain Showers
4:00 PM 50 °F 44 °F 75% 29.14 in 7 mi ESE 34.5 mph - - Rain Rain
4:20 PM 51.8 °F 44.6 °F 76% 29.12 in 6.2 mi ESE 28.8 mph - N/A Rain Light Rain Showers
4:50 PM 51.8 °F 44.6 °F 76% 29.09 in 6.2 mi ESE 27.6 mph 40.3 mph N/A   Mostly Cloudy
5:00 PM 51 °F 44 °F 68% 29.09 in 17 mi ESE 34.5 mph - - Rain Rain
5:20 PM 51.8 °F 44.6 °F 76% 29.06 in 6.2 mi ESE 31.1 mph 42.6 mph N/A   Scattered Clouds
5:50 PM 51.8 °F 44.6 °F 76% 29.03 in 6.2 mi ESE 28.8 mph 41.4 mph N/A   Scattered Clouds
6:00 PM 52 °F 44 °F 66% 29.04 in 13 mi ESE 38.0 mph - -   Overcast
6:20 PM 51.8 °F 44.6 °F 76% 29.03 in 6.2 mi ESE 26.5 mph - N/A   Mostly Cloudy
6:50 PM 51.8 °F 44.6 °F 76% 29.00 in 6.2 mi ESE 27.6 mph - N/A Rain Light Rain
7:00 PM 52 °F 44 °F 66% 29.00 in 11 mi ESE 34.5 mph - - Rain Rain
7:20 PM 51.8 °F 44.6 °F 76% 28.97 in 6.2 mi ESE 27.6 mph - N/A Rain Light Rain
7:50 PM 51.8 °F 46.4 °F 82% 28.97 in 6.2 mi ESE 25.3 mph - N/A Rain Light Rain
8:00 PM 51 °F 46 °F 78% 28.97 in 6 mi SE 27.6 mph - - Rain Light Rain
8:20 PM 51.8 °F 46.4 °F 82% 28.94 in 6.2 mi SE 21.9 mph - N/A Rain Light Rain
8:50 PM 53.6 °F 46.4 °F 77% 28.94 in 6.2 mi SE 25.3 mph - N/A   Mostly Cloudy
9:00 PM 51 °F 46 °F 77% 28.94 in 9 mi SE 24.2 mph - - Rain Rain
9:20 PM 51.8 °F 46.4 °F 82% 28.91 in 6.2 mi SE 25.3 mph 36.8 mph N/A   Mostly Cloudy
9:50 PM 53.6 °F 42.8 °F 67% 28.88 in 6.2 mi SE 29.9 mph 41.4 mph N/A   Partly Cloudy
10:00 PM 53 °F 43 °F 58% 28.89 in 12 mi SE 28.8 mph - - Rain Rain
10:20 PM 53.6 °F 42.8 °F 67% 28.88 in 6.2 mi SE 28.8 mph 40.3 mph N/A Rain Light Rain
10:50 PM 51.8 °F 42.8 °F 71% 28.85 in 6.2 mi SE 29.9 mph - N/A Rain Light Rain
11:00 PM 52 °F 42 °F 59% 28.86 in 14 mi SE 27.6 mph - - Rain Light Rain Showers
11:20 PM 51.8 °F 42.8 °F 71% 28.82 in 6.2 mi SE 26.5 mph 39.1 mph N/A   Scattered Clouds
11:50 PM 51.8 °F 44.6 °F 76% 28.82 in 6.2 mi SE 28.8 mph 40.3 mph N/A Rain Light Rain